Weather observations for the past three days for
Baxter County Airport
Imperial (Metric)
Date Time (cdt) Wind (mph) Vis. (mi.) Weather Sky Cond. Temperature (ºF) Relative Humidity Wind Chill (°F) Heat Index (°F) Pressure Precipitation (in)
Air Dwpt 6 hour altimeter (in) sea level (mb) 1 hr 3 hr 6 hr
Max. Min.
22 11:53 N 3 10.00 Overcast BKN017 BKN028 OVC044 75 66.9 76% 76 30.08 1017.6
22 10:53 Calm 10.00 Overcast SCT027 BKN042 OVC050 73 66.9 81% 30.08 1017.8
22 09:53 Calm 10.00 Overcast BKN041 OVC048 72 66 82% 30.07 1017.6
22 08:53 E 3 10.00 Overcast BKN055 OVC085 70 66 87% 30.06 1017.2
22 07:53 Calm 9.00 Overcast SCT050 OVC075 69.1 66 90% 30.05 1016.8
22 06:53 E 3 7.00 Partly Cloudy SCT065 68 64.9 69.1 66 90% 30.04 1016.2
22 05:53 Calm 9.00 Mostly Cloudy FEW027 BKN080 66.9 64.9 93% 30.03 1016.1
22 04:53 Calm 9.00 Mostly Cloudy BKN080 66.9 64.9 93% 30.03 1015.8
22 03:53 Calm 9.00 A Few Clouds FEW055 66 64 93% 30.03 1016.0
22 02:53 Calm 10.00 Overcast BKN075 OVC100 68 64.9 90% 30.04 1016.4
22 01:53 Calm 10.00 Overcast OVC060 68 64.9 90% 30.05 1016.9
22 00:53 Calm 10.00 Mostly Cloudy BKN075 69.1 64.9 77 68 87% 30.06 1017.0
21 23:53 Calm 10.00 Mostly Cloudy BKN080 69.1 64.9 87% 30.06 1017.2
21 22:53 Calm 10.00 Mostly Cloudy BKN085 69.1 64.9 87% 30.06 1017.2
21 21:53 Calm 10.00 Mostly Cloudy BKN080 70 66 87% 30.05 1016.9
21 20:53 Calm 10.00 Partly Cloudy SCT085 70 66 87% 30.05 1016.8
21 19:53 Calm 10.00 Fair CLR 73.9 66 76% 30.04 1016.4
21 18:53 E 3 10.00 Overcast OVC037 77 64.9 81 72 66% 79 30.03 1016.1
21 17:53 Calm 10.00 Mostly Cloudy BKN120 80.1 62.1 54% 81 30.03 1015.9
21 16:53 Calm 10.00 Overcast OVC120 78.1 63 60% 80 30.04 1016.3
21 15:53 Vrbl 5 10.00 Overcast FEW024 BKN095 OVC110 77 64.9 66% 79 30.05 1016.7
21 14:53 Calm 10.00 Overcast OVC090 75 64.9 71% 77 30.07 1017.3
21 13:53 Vrbl 3 10.00 Mostly Cloudy FEW045 BKN090 BKN110 73 64 74% 30.09 1018.3
21 12:53 Vrbl 5 10.00 Overcast BKN050 BKN065 OVC100 72 64 72 66 76% 30.1 1018.4
21 11:53 Calm 10.00 Light Rain BKN055 OVC085 70 64 82% 30.11 1018.8
21 10:53 Calm 10.00 Overcast OVC055 70 63 79% 30.11 1018.7
21 09:53 Calm 10.00 Overcast OVC065 70 63 79% 30.1 1018.6
21 08:53 Calm 10.00 Mostly Cloudy BKN070 69.1 62.1 78% 30.1 1018.5
21 07:53 E 3 10.00 Partly Cloudy SCT055 69.1 61 76% 30.08 1017.9
21 06:53 E 3 10.00 Fair CLR 66 60.1 70 64.9 81% 30.08 1017.6
21 05:53 E 3 10.00 A Few Clouds FEW120 66 60.1 81% 30.07 1017.3
21 04:53 Calm 10.00 Fair CLR 66 61 84% 30.07 1017.2
21 03:53 Calm 10.00 Fair CLR 66.9 62.1 84% 30.07 1017.2
21 02:53 Calm 10.00 Fair CLR 68 62.1 81% 30.07 1017.5
21 01:53 Calm 10.00 Fair CLR 69.1 63 81% 30.09 1017.9
21 00:53 Calm 10.00 Fair CLR 69.1 64 75.9 69.1 84% 30.09 1017.9
20 23:53 Calm 10.00 Fair CLR 70 64 82% 30.08 1017.7
20 22:53 Calm 10.00 Fair CLR 70 64 82% 30.07 1017.4
20 21:53 Calm 10.00 Mostly Cloudy BKN120 71.1 64 79% 30.08 1017.7
20 20:53 Calm 10.00 A Few Clouds FEW120 71.1 64 79% 30.07 1017.4
20 19:53 Calm 10.00 Fair CLR 73.9 64 71% 30.06 1017.2
20 18:53 E 3 10.00 Fair CLR 75.9 61 82.9 75.9 60% 78 30.07 1017.5
20 17:53 E 3 10.00 A Few Clouds FEW050 79 60.1 52% 80 30.07 1017.4
20 16:53 E 5 10.00 Mostly Cloudy BKN048 BKN055 80.1 59 49% 81 30.07 1017.4
20 15:53 Vrbl 3 10.00 A Few Clouds FEW050 81 57.9 45% 81 30.06 1017.2
20 14:53 NE 5 10.00 Mostly Cloudy BKN050 80.1 60.1 51% 81 30.08 1017.9
20 13:53 Vrbl 3 10.00 Partly Cloudy SCT047 79 59 50% 80 30.1 1018.5
20 12:53 Calm 10.00 Mostly Cloudy BKN049 78.1 59 80.1 60.1 52% 79 30.13 1019.4
20 11:53 Vrbl 3 10.00 Partly Cloudy SCT039 78.1 59 52% 79 30.13 1019.3
20 10:53 Calm 10.00 Fair CLR 75.9 59 56% 78 30.14 1019.8
20 09:53 Calm 10.00 Fair CLR 72 60.1 66% 30.12 1019.1
20 08:53 Vrbl 3 10.00 Fair CLR 69.1 61 76% 30.12 1019.3
20 07:53 Calm 10.00 Fair CLR 66 60.1 81% 30.1 1018.6
20 06:53 Calm 10.00 Fair CLR 60.1 57.9 64 59 93% 30.1 1018.4
20 05:53 Calm 10.00 Fair CLR 60.1 57.9 93% 30.09 1018.3
20 04:53 Calm 10.00 Fair CLR 60.1 59 96% 30.08 1017.8
20 03:53 Calm 10.00 Fair CLR 61 59 93% 30.07 1017.5
20 02:53 Calm 10.00 Fair CLR 63 60.1 90% 30.08 1017.7
20 01:53 Calm 10.00 Fair CLR 64 60.1 87% 30.08 1017.8
20 00:53 E 3 10.00 Fair CLR 63 59 79 63 87% 30.09 1018.0
19 23:53 Calm 10.00 A Few Clouds FEW060 64 59 84% 30.1 1018.3
19 22:53 Calm 10.00 Fair CLR 66 60.1 81% 30.09 1018.2
19 21:53 Calm 10.00 Fair CLR 66.9 59 76% 30.09 1018.3
19 20:53 Calm 10.00 Fair CLR 69.1 60.1 73% 30.07 1017.5
19 19:53 Calm 10.00 Fair CLR 73 60.1 64% 30.07 1017.6
19 18:53 Vrbl 3 10.00 Overcast OVC060 79 55.9 82 75.9 45% 80 30.07 1017.5
19 17:53 Calm 10.00 Partly Cloudy SCT060 78.1 57.9 50% 79 30.07 1017.6
19 16:53 E 7 10.00 Partly Cloudy SCT055 80.1 55 42% 80 30.08 1017.6
19 15:53 E 7 10.00 Mostly Cloudy BKN055 79 55.9 45% 80 30.09 1018.1
19 14:53 E 7 10.00 Mostly Cloudy BKN060 78.1 55 45% 79 30.1 1018.6
19 13:53 N 3 10.00 Mostly Cloudy SCT049 BKN060 75.9 57.9 54% 78 30.12 1019.3
19 12:53 SE 3 10.00 Partly Cloudy SCT055 78.1 55.9 79 62.1 47% 79 30.14 1019.8
Date Time (cdt) Wind (mph) Vis. (mi.) Weather Sky Cond. Air Dwpt Max. Min. Relative Humidity Wind Chill (°F) Heat Index (°F) altimeter (in) sea level (mb) 1 hr 3 hr 6 hr
6 hour
Temperature (ºF) Pressure Precipitation (in)